Regional Weather Roundup
Issued by NWS Green Bay, WI

Home | Current Version | Previous Version | Graphics & Text | Print | Product List | Glossary Off
Versions: 1 2 3 4 5 6 7 8 9 10 11 12 13 14 15 16 17 18 19 20 21 22 23 24 25 26 27 28 29 30 31 32 33 34 35 36 37 38 39 40 41 42 43 44 45 46 47 48

088
ASUS43 KGRB 211411
RWRGRB

NORTH-CENTRAL AND NORTHEAST WISCONSIN REGIONAL WEATHER ROUNDUP
NATIONAL WEATHER SERVICE GREEN BAY WI
900 AM CDT THU MAY 21 2015

WIZ005-009-010>012-018-019-211500-
NORTH CENTRAL WISCONSIN

CITY           SKY/WX    TMP DP  RH WIND       PRES   REMARKS
IRONWOOD       SUNNY     55  36  47 N13       29.93S
MANITOWISH WTR MOSUNNY   54  37  53 W6        29.95S
ARBOR VITAE    MOSUNNY   56  38  50 W7G16     29.96S
EAGLE RIVER    MOSUNNY   54  32  43 W10       29.94F
LAND O LAKES   MOSUNNY   56  34  43 NW6       29.94F
RHINELANDER    CLOUDY    50  34  54 W10       29.98S
PHILLIPS       MOSUNNY   51  37  59 SW5       29.98S
ANTIGO         PTSUNNY   52  36  54 W7        29.98F
TOMAHAWK       PTSUNNY   51  35  55 W3        29.98F
MERRILL        CLOUDY    51  36  56 W6        30.00S
$$

WIZ013-073-211500-
NORTHEAST WISCONSIN

CITY           SKY/WX    TMP DP  RH WIND       PRES   REMARKS
IRON MOUNTAIN  PTSUNNY   54  34  46 W6        29.91F
MARINETTE      SUNNY     55  34  44 W7        29.94F
OCONTO         SUNNY     56  35  45 W14       29.97S
$$

WIZ017-030-035>037-045-211500-
CENTRAL WISCONSIN

CITY           SKY/WX    TMP DP  RH WIND       PRES   REMARKS
MEDFORD        CLOUDY    47  35  63 W8        30.01S
WAUSAU         MOSUNNY   55  36  48 NW10      29.99F
MOSINEE        SUNNY     54  37  54 W9        30.02S
MARSHFIELD     SUNNY     54  37  52 W12G21    30.02F
WISC RAPIDS    SUNNY     56  36  47 W9        30.04F
STEVENS POINT  SUNNY     52  35  52 W10       30.02F
WAUPACA        MOSUNNY   58  37  45 W10G16    30.01F
SHAWANO        SUNNY     58  36  43 W9        29.99S
CLINTONVILLE   SUNNY     55  34  44 NW12      30.00S
$$

WIZ038-039-048-051-211500-
FOX VALLEY

CITY           SKY/WX    TMP DP  RH WIND       PRES   REMARKS
NWS GREEN BAY  SUNNY     57  38  48 W13       29.99F
APPLETON       PTSUNNY   52  37  58 W13G21    30.01F
OSHKOSH        MOSUNNY   53  40  61 W8        30.02F
FOND DU LAC    MOSUNNY   54  39  57 SW8       30.04F
$$

WIZ022-050-052-211500-
EAST CENTRAL WISCONSIN

CITY           SKY/WX    TMP DP  RH WIND       PRES   REMARKS
STURGEON BAY   SUNNY     54  34  47 W15       29.98F
MANITOWOC      MOSUNNY   54  39  57 W14       30.00F
SHEBOYGAN      PTSUNNY   54  38  54 W13       30.02F
$$

LMZ563-521-522-541>543-211500-
LAKESHORE

STATION/POSITION TIME  TEMP    WIND        PRES    VSBY  WAVE
                       AIR SEA DIR/SP/G                  HT/PER
                 (UTC) (F)     (DEG/KT/KT) (MB)    (MI)  (FT/S)
SHEBOYGAN LKSHOR 1400   54     260/ 11/ 13 1016.9F
KEWAUNEE LKSHORE 1300   51     270/ 10/ 13 1014.8F
NORTHPORT PIER   1300   54     250/  4/ 12 1013.9S
N MID LAKE BUOY  1350   41 36  230/ 10/ 12 1013.8F         1/ 4
SISTER BAY LKSHO 1317   56     270/ 13/ 16   N/A
CHAMBERS ISLAND  1300   51     210/  7/ 13 1014.2F
MENOMINEE LKSHOR 1300   52     260/ 12/ 15 1014.7F
$$



USA.gov is the U.S. government's official web portal to all federal, state and local government web resources and services.